This is the latest recevied weather packets stored in our database for station/object WA4IKQ. If no packets are shown the sender has not sent any weather packets the latest 10 day(s).
| Time | Temp. | Humidity | Pressure | Rain* | Wind** | Luminosity | Snow |
|---|---|---|---|---|---|---|---|
| 1778162883 | 28.33° C | 63% | 1016.2 hPa | 0 mm | 1.79 m/s, 165° | - | - |
| 1778162770 | 28.33° C | 63% | 1016.2 hPa | 0 mm | 1.79 m/s, 165° | - | - |
| 1778162586 | 28.33° C | 65% | 1016.1 hPa | 0 mm | 2.24 m/s, 165° | - | - |
| 1778162472 | 28.33° C | 65% | 1016.1 hPa | 0 mm | 2.24 m/s, 165° | - | - |
| 1778162288 | 27.78° C | 66% | 1016.1 hPa | 0 mm | 1.34 m/s, 129° | - | - |
| 1778162171 | 27.78° C | 66% | 1016.1 hPa | 0 mm | 1.34 m/s, 129° | - | - |
| 1778161428 | 27.22° C | 69% | 1016.1 hPa | 0 mm | 0 m/s | - | - |
| 1778161275 | 27.22° C | 69% | 1016.1 hPa | 0 mm | 0 m/s | - | - |
| 1778160520 | 26.67° C | 71% | 1016.1 hPa | 0 mm | 1.79 m/s, 174° | - | - |
| 1778159578 | 26.11° C | 74% | 1016.1 hPa | 0 mm | 0.89 m/s, 82° | - | - |
| 1778159381 | 26.11° C | 75% | 1016 hPa | 0 mm | 1.34 m/s, 152° | - | - |
| 1778158983 | 25.56° C | 75% | 1016 hPa | 0 mm | 2.68 m/s, 136° | - | - |
| 1778158686 | 25.56° C | 76% | 1015.9 hPa | 0 mm | 3.13 m/s, 149° | - | - |
| 1778158395 | 25° C | 77% | 1015.9 hPa | 0 mm | 4.02 m/s, 153° | - | - |
| 1778157139 | 23.89° C | 82% | 1015.9 hPa | 0 mm | 2.68 m/s, 148° | - | - |
| 1778157068 | 23.89° C | 82% | 1015.9 hPa | 0 mm | 2.68 m/s, 148° | - | - |
| 1778156997 | 23.89° C | 83% | 1015.9 hPa | 0 mm | 2.68 m/s, 131° | - | - |
| 1778156768 | 23.89° C | 83% | 1015.9 hPa | 0 mm | 2.68 m/s, 131° | - | - |
| 1778156608 | 23.89° C | 84% | 1015.9 hPa | 0 mm | 0.45 m/s, 105° | - | - |
| 1778156287 | 23.33° C | 84% | 1015.8 hPa | 0 mm | 1.34 m/s, 148° | - | - |
| 1778156169 | 23.33° C | 84% | 1015.8 hPa | 0 mm | 1.34 m/s, 148° | - | - |
| 1778156000 | 23.33° C | 85% | 1015.9 hPa | 0 mm | 1.79 m/s, 153° | - | - |
| 1778155869 | 23.33° C | 85% | 1015.9 hPa | 0 mm | 1.79 m/s, 153° | - | - |
| 1778155569 | 22.78° C | 85% | 1015.9 hPa | 0 mm | 2.24 m/s, 132° | - | - |
| 1778155267 | 22.78° C | 86% | 1015.8 hPa | 0 mm | 2.24 m/s, 114° | - | - |
* Rain latest hour (hover to see other rain measurements)
** Current wind speed in m/s (hover to see current wind gust speed)